Temp
84 86 86 87 87 87 86 86 86 86 87 87 87 88 87 87 86 85 84 82 81 81 81 81 81 81 81 81 81 81 82 82 81 81 81 80 81 81 80 80 80 79 80 80 80 81 81 83 82 82 82 82 82 81 81 81 81 83 80 80 81 80 81
84 85 87 88 87 86 86 86 85 86 87 87 87 87 88 87 86 84 84 83 82 82 82 82 81 81 82 81 82 81 81 81 81 82 81 80 79 80 82 81 81 79 80 81 80 80 81 83 83 82 82 83 82 81 82 81 81 80 80 80 80 79 79
84 85 87 87 87 87 86 86 85 86 87 88 88 88 88 86 86 85 84 83 82 82 82 82 82 82 82 82 81 81 81 82 81 81 81 81 81 82 82 82 82 82 82 82 82 81 82 81 82 82 83 83 83 82 81 81 81 81 80 80 80 80 78
84 86 87 87 87 87 87 86 85 86 87 88 88 89 88 86 87 86 85 84 83 82 81 82 83 82 82 81 81 81 81 81 82 82 83 83 82 83 82 82 82 83 81 82 84 85 86 83 81 82 84 82 82 82 82 82 82 81 81 80 80 80 79
86 87 87 87 87 86 86 86 86 86 86 88 88 88 89 88 88 87 86 85 85 83 84 84 85 84 83 83 83 82 82 82 82 83 83 84 83 83 83 83 83 83 83 84 84 83 83 83 83 81 82 82 82 82 82 82 82 81 81 80 80 80 79
86 86 87 87 87 86 86 86 87 87 87 87 87 88 89 89 89 88 88 85 85 85 85 84 84 83 82 83 83 83 83 83 83 83 83 83 83 83 83 83 84 84 84 84 84 84 84 84 84 82 83 83 83 83 83 82 82 82 81 80 80 80 80
86 87 87 87 88 87 86 86 87 88 88 88 89 88 89 90 89 89 89 87 86 84 84 84 85 84 83 83 83 83 82 83 83 83 84 84 84 84 84 84 84 85 85 85 84 84 85 84 84 84 83 84 83 83 82 81 81 82 81 80 79 80 79
88 88 88 88 88 88 87 87 87 88 88 89 88 88 88 89 90 90 89 88 87 86 85 85 85 84 83 83 84 83 83 83 84 84 84 84 84 84 84 84 84 85 85 85 85 85 85 84 85 85 84 84 83 82 83 82 81 82 81 80 79 80 81
89 89 89 89 89 89 88 87 88 88 87 87 87 87 88 88 89 90 90 89 88 86 86 86 86 86 84 84 83 83 84 84 83 83 84 84 84 84 85 85 85 85 85 85 86 86 85 85 86 84 84 84 83 82 82 81 82 82 81 81 80 80 81
89 88 88 90 90 91 89 89 88 87 86 86 86 86 87 88 89 89 90 90 88 87 87 87 87 86 85 84 84 84 84 83 84 84 84 84 85 85 86 86 86 86 86 86 87 86 86 85 85 84 83 83 83 82 82 82 82 82 82 81 81 80 80
90 88 88 89 89 90 89 89 88 86 86 85 85 87 86 87 88 89 89 90 89 88 88 87 87 87 86 85 84 84 83 83 84 84 84 85 86 86 86 87 87 87 86 87 86 87 86 84 85 84 83 84 83 82 82 82 82 82 82 82 82 81 81
86 87 87 88 89 89 88 88 87 85 85 85 86 87 86 86 87 88 89 91 91 89 88 88 88 88 86 85 84 83 83 83 84 84 84 85 86 86 87 87 87 87 87 87 87 87 87 85 85 84 83 84 84 83 83 82 82 82 82 83 82 81 81
87 87 86 88 88 88 87 85 86 85 85 86 87 87 87 87 87 88 88 90 92 91 89 88 88 87 86 86 85 83 83 83 84 85 85 85 86 87 87 88 88 88 87 88 88 88 87 87 86 85 84 84 84 84 83 82 83 82 82 82 82 82 81
85 87 88 89 88 87 85 85 85 85 85 86 87 88 88 88 88 89 89 90 91 91 90 90 88 87 87 86 84 83 83 84 84 85 85 86 85 86 87 88 88 87 87 87 88 88 88 87 86 86 85 84 84 84 84 83 82 82 82 82 83 82 81
83 84 84 84 81 80 84 85 84 84 85 86 88 88 88 88 89 89 90 91 91 92 90 90 88 87 87 85 84 83 84 84 85 85 85 85 85 85 86 87 87 87 87 87 88 89 89 89 88 86 85 85 84 84 84 84 83 83 83 82 82 82 82
82 83 83 81 80 82 80 80 79 80 82 84 87 87 89 89 89 90 90 91 92 91 91 90 88 87 86 85 84 84 84 84 84 84 84 84 84 84 85 86 86 87 87 86 87 87 87 87 87 87 86 84 84 84 84 84 84 81 77 78 83 82 84
80 81 81 82 80 80 81 78 75 75 75 73 75 79 84 87 91 91 92 92 92 91 92 91 88 87 86 85 85 84 84 83 83 84 83 83 84 84 84 85 86 85 85 86 86 86 85 86 87 87 87 86 85 84 84 85 85 76 71 72 76 83 82
78 78 79 80 81 81 78 81 77 75 76 76 77 76 73 69 72 81 91 91 91 93 93 91 89 87 86 86 85 84 83 83 83 83 83 83 83 83 84 85 85 84 84 85 85 85 86 85 85 86 87 87 86 85 85 85 79 71 69 70 71 77 83
76 77 78 77 76 79 77 75 81 79 76 76 74 74 74 74 74 72 70 78 90 92 92 90 89 88 86 86 85 84 84 83 83 83 83 83 83 83 84 83 84 84 84 85 86 86 85 84 84 85 86 86 84 85 86 85 76 69 68 69 69 70 79
74 75 76 77 78 78 78 74 74 82 80 77 78 80 76 76 76 76 75 73 73 83 90 88 88 87 86 85 85 84 84 83 83 83 83 83 83 83 83 83 83 84 85 85 85 85 85 86 84 83 84 85 85 84 86 85 76 67 66 67 67 68 73
71 72 73 73 74 75 75 75 76 79 81 83 84 81 81 80 79 81 81 79 78 84 88 88 87 87 86 85 85 85 84 83 83 83 83 83 83 83 83 83 83 84 85 86 85 85 84 85 85 83 84 86 86 85 85 88 72 65 65 65 65 66 70
70 70 70 72 72 73 73 76 77 78 78 81 82 85 82 80 84 85 84 86 86 87 88 88 85 86 86 85 85 85 85 84 83 83 83 83 83 82 82 83 83 83 84 86 86 86 86 86 86 85 84 85 86 86 85 88 68 64 64 64 64 66 74
70 70 71 71 73 73 75 76 75 76 77 79 81 83 84 86 87 86 86 88 90 88 88 88 85 85 85 86 85 86 86 85 84 83 83 83 83 83 83 83 83 84 85 85 86 85 85 85 86 86 86 85 84 85 84 86 70 63 62 63 63 66 76
70 70 70 71 72 73 73 74 74 76 76 77 79 81 82 84 84 84 83 82 83 85 87 88 87 86 85 86 86 86 86 86 85 84 83 83 83 83 84 85 85 85 85 85 86 86 86 87 87 87 87 86 85 85 85 87 73 61 62 61 61 68 78
68 69 69 70 70 70 71 71 73 75 76 77 78 80 82 82 83 84 83 84 84 85 87 87 88 87 86 86 87 87 87 87 86 85 84 84 84 84 84 84 85 86 86 86 87 87 87 86 86 87 87 88 88 83 84 87 75 59 62 60 60 67 79
66 67 68 69 70 71 71 72 73 74 75 76 76 79 80 82 82 82 82 83 86 86 87 88 89 90 88 88 88 88 87 87 86 85 85 84 84 85 85 85 86 86 86 86 87 87 87 86 86 86 87 87 87 88 87 86 80 66 59 59 58 62 78
66 67 66 67 68 69 70 71 72 72 73 74 75 78 80 81 81 81 82 83 84 84 88 90 90 89 87 87 88 88 88 88 86 86 86 86 85 86 86 86 86 86 86 86 87 87 86 86 86 87 86 87 87 88 87 88 85 71 57 57 57 58 68
65 65 67 67 68 68 68 69 70 71 73 74 77 79 81 82 80 80 81 82 83 85 89 90 89 88 87 86 87 88 88 87 87 87 87 87 86 84 84 85 86 86 86 87 86 85 84 84 84 85 85 86 86 87 87 85 80 82 59 57 56 57 60
62 62 63 64 65 67 68 67 68 71 72 75 77 79 80 80 79 80 81 81 83 86 88 88 88 87 86 85 86 86 87 87 86 86 88 87 86 85 84 84 85 85 85 84 84 83 83 83 83 84 84 84 85 85 85 85 83 74 70 57 55 55 56
62 63 63 65 66 66 67 67 69 71 73 74 75 77 79 79 78 79 80 81 85 86 86 86 87 87 86 85 85 86 87 87 87 87 88 86 85 84 84 83 84 84 84 84 84 83 82 83 82 83 83 83 83 84 84 84 86 74 68 65 55 55 55
62 62 63 63 64 66 67 67 69 70 71 72 73 76 77 79 79 78 78 81 84 84 84 85 86 86 85 85 85 85 87 86 86 86 87 86 85 84 84 83 84 83 84 83 83 83 82 82 82 82 82 82 82 83 84 85 85 84 71 64 59 56 55
62 63 63 63 63 64 66 68 69 69 68 70 73 75 76 78 79 77 78 81 83 84 84 85 85 85 85 85 85 86 87 86 87 86 86 86 86 85 85 84 84 83 83 83 83 83 82 82 82 82 82 81 83 83 84 84 85 83 78 68 64 60 56
60 61 61 61 62 65 65 67 66 67 67 68 71 74 75 75 77 77 77 78 83 85 85 85 85 84 84 84 85 85 86 86 86 86 86 86 86 86 85 85 85 84 82 83 83 83 83 82 81 82 82 82 82 83 83 83 83 82 79 75 72 69 65
59 60 62 63 63 64 64 65 65 65 65 66 70 71 72 73 74 75 75 76 79 85 84 84 84 84 84 85 85 85 86 86 83 84 85 86 86 86 86 85 86 85 82 82 83 83 82 82 82 81 82 83 83 83 82 82 83 83 81 76 74 72 70
59 60 61 61 63 63 62 63 64 64 64 65 67 68 69 71 73 74 74 75 77 77 81 83 82 83 85 85 85 84 84 85 85 85 85 86 85 86 86 86 87 84 84 86 87 86 85 84 84 83 85 85 84 83 82 82 82 84 73 79 66 72 73
59 59 60 62 62 62 62 63 64 63 63 64 65 66 67 69 71 72 73 74 75 76 76 77 80 82 83 84 84 84 83 83 85 85 84 85 85 83 70 56 50 59 77 85 79 72 71 71 84 86 86 86 86 86 85 84 87 74 62 59 57 57 61
58 59 61 61 60 61 61 62 63 63 63 63 64 64 66 67 69 70 72 73 75 75 75 75 76 78 81 82 82 81 82 83 83 84 83 82 82 79 75 72 67 50 44 48 62 67 63 60 65 68 72 83 84 79 70 73 72 60 55 55 54 54 54
59 60 61 61 60 61 61 62 61 61 61 62 62 63 64 66 68 69 70 72 74 74 73 74 74 73 72 74 73 72 70 71 74 75 78 81 80 76 74 74 71 66 51 45 46 50 51 54 58 58 60 66 72 74 74 63 59 56 52 53 53 53 53
MSLP
1005.03 1005.39 1005.59 1005.67 1005.99 1006.15 1006.47 1006.67 1006.87 1007.23 1007.43 1007.79 1008.03 1008.35 1008.83 1009.19 1009.55 1010.03 1010.67 1011.19 1011.67 1012.27 1012.51 1012.79 1013.07 1013.39 1013.83 1014.11 1014.23 1014.31 1014.43 1014.67 1014.87 1015.19 1015.47 1015.67 1015.71 1016.03 1016.35 1016.47 1016.67 1016.79 1016.91 1017.23 1017.27 1017.27 1017.15 1017.07 1017.27 1017.43 1017.55 1017.67 1017.83 1017.95 1018.03 1018.11 1018.31 1018.39 1018.55 1018.59 1018.87 1019.19 1019.27
1004.91 1004.87 1004.91 1005.11 1005.47 1005.71 1005.83 1006.03 1006.39 1006.67 1006.99 1007.27 1007.63 1007.91 1008.31 1008.71 1009.07 1009.59 1009.99 1010.47 1011.03 1011.55 1011.99 1012.35 1012.79 1013.03 1013.23 1013.59 1013.83 1014.07 1014.31 1014.43 1014.55 1014.75 1015.03 1015.35 1015.47 1015.59 1015.71 1016.03 1016.19 1016.47 1016.47 1016.55 1016.75 1016.79 1016.87 1016.87 1016.99 1017.27 1017.43 1017.51 1017.67 1017.71 1017.87 1017.99 1018.15 1018.35 1018.55 1018.59 1018.87 1019.07 1019.15
1004.19 1004.15 1004.15 1004.27 1004.71 1005.03 1005.39 1005.75 1006.07 1006.23 1006.43 1006.75 1007.11 1007.51 1007.79 1008.07 1008.31 1008.83 1009.55 1010.23 1010.87 1011.27 1011.63 1011.99 1012.27 1012.51 1012.75 1013.11 1013.55 1013.83 1013.95 1014.15 1014.39 1014.63 1014.91 1015.07 1015.19 1015.27 1015.31 1015.51 1015.75 1015.99 1016.07 1016.11 1016.31 1016.55 1016.47 1016.75 1016.79 1016.95 1017.11 1017.39 1017.51 1017.59 1017.71 1017.87 1018.03 1018.23 1018.39 1018.55 1018.75 1018.99 1019.15
1003.79 1003.83 1003.67 1003.63 1003.83 1004.11 1004.55 1005.03 1005.55 1005.87 1005.99 1006.11 1006.43 1006.75 1007.11 1007.55 1007.75 1008.31 1008.91 1009.55 1010.35 1010.91 1011.43 1011.59 1011.95 1012.35 1012.63 1012.99 1013.27 1013.51 1013.71 1013.83 1013.87 1014.11 1014.31 1014.47 1014.71 1014.83 1015.15 1015.31 1015.47 1015.59 1015.95 1016.07 1015.99 1016.07 1016.19 1016.35 1016.63 1016.79 1016.87 1017.15 1017.31 1017.43 1017.55 1017.71 1017.87 1018.03 1018.23 1018.43 1018.71 1018.79 1018.91
1002.83 1002.75 1003.27 1003.67 1003.95 1004.27 1004.55 1004.83 1005.19 1005.39 1005.71 1005.75 1005.91 1006.11 1006.51 1006.99 1007.39 1007.87 1008.39 1008.83 1009.35 1010.07 1010.39 1010.91 1011.35 1011.83 1012.19 1012.43 1012.71 1012.91 1013.11 1013.35 1013.55 1013.67 1013.87 1013.99 1014.19 1014.43 1014.79 1015.03 1015.15 1015.31 1015.39 1015.51 1015.63 1015.87 1016.07 1016.27 1016.43 1016.59 1016.79 1016.87 1017.15 1017.27 1017.43 1017.51 1017.71 1017.83 1018.07 1018.23 1018.63 1018.71 1018.83
1002.75 1003.07 1003.15 1003.31 1003.59 1003.91 1004.07 1004.27 1004.47 1004.75 1005.19 1005.67 1005.87 1006.11 1006.31 1006.67 1006.99 1007.55 1007.87 1008.47 1008.95 1009.35 1009.83 1010.39 1010.91 1011.31 1011.87 1012.03 1012.35 1012.59 1012.75 1012.91 1013.03 1013.23 1013.47 1013.63 1013.91 1014.23 1014.43 1014.51 1014.71 1014.87 1015.11 1015.19 1015.23 1015.43 1015.59 1015.87 1016.07 1016.31 1016.55 1016.67 1016.83 1017.07 1017.19 1017.39 1017.47 1017.59 1017.87 1018.07 1018.31 1018.47 1018.71
1002.35 1002.47 1002.75 1002.87 1003.15 1003.51 1003.75 1003.95 1004.15 1004.35 1004.55 1004.91 1005.23 1005.55 1005.91 1006.31 1006.71 1007.03 1007.39 1008.07 1008.39 1009.03 1009.47 1009.95 1010.27 1010.71 1011.19 1011.51 1011.91 1012.23 1012.55 1012.67 1012.83 1013.03 1013.11 1013.35 1013.51 1013.79 1013.87 1013.99 1014.15 1014.35 1014.43 1014.63 1014.95 1014.99 1015.31 1015.51 1015.59 1015.79 1016.03 1016.31 1016.55 1016.75 1016.95 1017.15 1017.35 1017.35 1017.63 1017.91 1018.19 1018.23 1018.35
1001.67 1002.19 1002.19 1002.43 1002.71 1003.03 1003.43 1003.67 1003.79 1004.07 1004.35 1004.59 1005.15 1005.59 1005.87 1005.87 1006.15 1006.55 1007.03 1007.39 1007.91 1008.35 1008.75 1009.23 1009.75 1010.11 1010.59 1011.03 1011.39 1011.79 1012.07 1012.27 1012.35 1012.51 1012.71 1013.03 1013.19 1013.43 1013.51 1013.67 1013.79 1013.87 1014.07 1014.47 1014.47 1014.55 1014.83 1015.03 1015.11 1015.27 1015.55 1015.91 1016.19 1016.39 1016.59 1016.79 1016.99 1017.11 1017.31 1017.71 1017.99 1018.11 1018.11
1000.79 1000.87 1001.43 1001.79 1002.07 1002.39 1002.75 1003.11 1003.31 1003.63 1004.07 1004.43 1004.67 1005.07 1005.43 1005.71 1005.83 1005.95 1006.35 1006.91 1007.31 1007.71 1008.07 1008.35 1008.91 1009.39 1009.95 1010.55 1011.03 1011.39 1011.63 1011.91 1012.19 1012.31 1012.51 1012.75 1012.87 1013.07 1013.15 1013.27 1013.35 1013.39 1013.79 1014.03 1014.15 1014.15 1014.35 1014.55 1014.67 1014.91 1015.19 1015.51 1015.79 1016.07 1016.31 1016.51 1016.71 1016.79 1017.03 1017.31 1017.59 1017.87 1017.99
1000.47 1000.79 1000.83 1000.91 1001.19 1001.55 1002.07 1002.55 1002.99 1003.43 1003.91 1004.19 1004.51 1004.87 1005.03 1005.15 1005.39 1005.67 1005.95 1006.27 1006.79 1007.31 1007.55 1007.91 1008.31 1008.83 1009.47 1010.03 1010.51 1010.87 1011.31 1011.63 1011.75 1012.03 1012.19 1012.47 1012.43 1012.67 1012.71 1012.83 1012.99 1013.03 1013.35 1013.51 1013.71 1014.03 1014.03 1014.11 1014.35 1014.59 1014.91 1015.23 1015.51 1015.79 1015.99 1016.27 1016.43 1016.59 1016.67 1016.91 1017.15 1017.47 1017.67
999.79 1000.11 1000.35 1000.67 1000.99 1001.27 1001.71 1002.31 1002.83 1003.15 1003.31 1003.63 1003.95 1004.15 1004.47 1004.83 1005.11 1005.39 1005.51 1005.67 1006.19 1006.71 1007.03 1007.43 1007.75 1008.35 1008.91 1009.47 1010.07 1010.47 1010.83 1011.15 1011.35 1011.63 1011.83 1011.95 1011.99 1012.19 1012.27 1012.43 1012.59 1012.71 1012.95 1013.15 1013.43 1013.55 1013.79 1013.99 1014.03 1014.39 1014.71 1014.99 1015.23 1015.51 1015.71 1015.87 1016.03 1016.27 1016.39 1016.51 1016.63 1016.95 1017.23
1000.59 1000.51 1000.43 1000.35 1000.59 1000.99 1001.59 1001.75 1002.07 1002.55 1002.91 1003.19 1003.35 1003.67 1004.07 1004.39 1004.67 1004.95 1005.11 1005.15 1005.35 1006.15 1006.63 1006.95 1007.23 1007.75 1008.39 1008.95 1009.63 1010.03 1010.35 1010.63 1010.91 1011.11 1011.27 1011.47 1011.63 1011.75 1011.83 1011.99 1012.19 1012.39 1012.55 1012.67 1013.03 1013.15 1013.31 1013.67 1013.87 1014.07 1014.43 1014.55 1014.75 1014.99 1015.23 1015.39 1015.59 1015.83 1015.95 1016.11 1016.27 1016.55 1016.83
999.83 1000.27 1000.55 1000.43 1000.47 1000.59 1000.83 1001.55 1001.91 1002.07 1002.35 1002.63 1002.87 1003.15 1003.55 1003.95 1004.31 1004.55 1004.79 1004.91 1004.87 1005.15 1005.79 1006.35 1006.87 1007.35 1007.91 1008.39 1008.95 1009.47 1009.83 1010.07 1010.27 1010.43 1010.67 1010.87 1011.03 1011.19 1011.39 1011.59 1011.71 1011.95 1012.23 1012.23 1012.47 1012.79 1013.07 1013.23 1013.51 1013.63 1013.91 1014.19 1014.35 1014.67 1014.87 1015.11 1015.23 1015.47 1015.63 1015.75 1015.95 1016.23 1016.55
998.87 999.59 1000.11 1000.11 1000.31 1000.59 1001.11 1001.27 1001.31 1001.71 1002.07 1002.31 1002.55 1002.71 1003.07 1003.39 1003.67 1003.95 1004.27 1004.55 1004.51 1004.67 1005.19 1005.63 1006.23 1006.87 1007.39 1007.91 1008.47 1008.83 1009.15 1009.31 1009.55 1009.83 1010.07 1010.23 1010.47 1010.71 1010.87 1011.03 1011.27 1011.47 1011.63 1011.87 1012.19 1012.39 1012.55 1012.83 1013.11 1013.27 1013.47 1013.79 1014.03 1014.19 1014.39 1014.75 1015.03 1015.19 1015.31 1015.43 1015.63 1015.91 1016.19
1001.35 1001.47 1001.63 1002.15 1002.19 1001.79 1001.31 1001.35 1001.55 1001.67 1001.83 1001.91 1001.99 1002.43 1002.79 1003.23 1003.55 1003.75 1003.91 1003.99 1004.07 1004.23 1004.63 1004.95 1005.71 1006.39 1006.91 1007.43 1007.91 1008.19 1008.47 1008.83 1009.11 1009.35 1009.67 1009.91 1010.19 1010.35 1010.51 1010.63 1010.79 1010.99 1011.23 1011.51 1011.75 1011.87 1011.99 1012.15 1012.51 1012.91 1013.27 1013.43 1013.63 1013.87 1014.03 1014.39 1014.63 1014.75 1014.99 1015.27 1015.43 1015.51 1015.83
1002.71 1002.83 1002.83 1003.23 1003.03 1002.59 1002.79 1003.11 1003.11 1002.95 1002.63 1002.43 1002.23 1002.27 1002.59 1002.95 1003.27 1003.39 1003.67 1003.79 1003.75 1003.99 1004.11 1004.59 1005.27 1005.87 1006.43 1006.91 1007.31 1007.67 1008.07 1008.43 1008.71 1009.03 1009.27 1009.67 1009.91 1010.03 1010.11 1010.23 1010.43 1010.63 1010.91 1011.15 1011.27 1011.47 1011.63 1011.87 1012.11 1012.43 1012.83 1013.19 1013.39 1013.51 1013.75 1013.95 1014.03 1014.15 1014.39 1014.55 1014.83 1015.11 1015.31
1003.47 1003.35 1003.47 1003.35 1003.47 1003.51 1003.67 1004.15 1003.99 1003.59 1003.63 1003.91 1004.07 1004.19 1003.87 1003.63 1003.19 1002.99 1003.19 1003.31 1003.51 1003.71 1003.71 1004.11 1004.91 1005.47 1005.95 1006.47 1006.75 1007.19 1007.63 1008.11 1008.43 1008.67 1009.07 1009.19 1009.43 1009.67 1009.87 1010.03 1010.11 1010.31 1010.51 1010.71 1010.95 1011.15 1011.35 1011.55 1011.87 1012.11 1012.35 1012.71 1013.03 1013.31 1013.39 1013.47 1013.47 1013.67 1013.99 1014.23 1014.35 1014.63 1014.95
1004.39 1004.27 1004.11 1004.23 1003.95 1003.79 1004.31 1004.51 1004.67 1004.15 1003.91 1003.83 1003.83 1003.83 1004.31 1004.83 1005.39 1005.07 1003.95 1003.39 1003.43 1003.39 1003.47 1004.03 1004.59 1005.15 1005.59 1005.95 1006.43 1006.79 1007.23 1007.63 1007.99 1008.39 1008.63 1008.87 1009.15 1009.31 1009.43 1009.63 1009.83 1010.07 1010.23 1010.43 1010.71 1010.83 1010.99 1011.35 1011.47 1011.63 1011.91 1012.23 1012.55 1012.87 1012.99 1013.03 1012.95 1013.23 1013.55 1013.83 1014.07 1014.23 1014.51
1005.31 1005.07 1004.95 1005.07 1005.11 1004.71 1004.91 1005.47 1004.79 1004.27 1004.23 1004.31 1004.35 1004.27 1004.39 1004.83 1004.79 1005.31 1006.51 1006.03 1004.03 1003.31 1003.67 1003.95 1004.31 1004.75 1005.27 1005.59 1005.99 1006.39 1006.75 1007.07 1007.55 1007.91 1008.23 1008.43 1008.63 1008.87 1009.15 1009.43 1009.63 1009.83 1009.99 1010.15 1010.07 1010.35 1010.75 1010.95 1011.23 1011.39 1011.43 1011.79 1012.23 1012.51 1012.55 1012.67 1012.63 1012.99 1013.23 1013.47 1013.67 1013.91 1014.11
1006.03 1005.79 1005.55 1005.31 1005.31 1005.39 1005.67 1006.19 1005.95 1004.47 1003.99 1003.95 1003.55 1003.59 1003.51 1003.39 1003.83 1004.39 1004.91 1006.39 1006.87 1005.15 1003.55 1003.91 1004.15 1004.47 1004.91 1005.23 1005.63 1005.95 1006.31 1006.71 1007.03 1007.43 1007.67 1007.91 1008.23 1008.51 1008.83 1009.07 1009.31 1009.27 1009.39 1009.59 1009.83 1010.15 1010.39 1010.59 1010.87 1010.99 1011.15 1011.31 1011.63 1011.91 1012.03 1012.19 1012.27 1012.63 1012.91 1013.19 1013.43 1013.63 1013.91
1006.87 1006.67 1006.51 1006.31 1006.11 1005.95 1006.03 1006.23 1005.91 1004.91 1004.19 1003.79 1003.63 1003.47 1003.59 1003.99 1004.15 1004.47 1004.95 1005.07 1005.47 1005.15 1003.83 1003.67 1003.99 1004.27 1004.51 1004.83 1005.11 1005.43 1005.87 1006.23 1006.59 1006.95 1007.23 1007.47 1007.79 1008.11 1008.39 1008.59 1008.83 1009.03 1009.11 1009.27 1009.55 1009.83 1010.07 1010.23 1010.47 1010.63 1010.71 1010.83 1011.03 1011.43 1011.67 1011.63 1011.75 1012.19 1012.51 1012.83 1013.15 1013.43 1013.79
1007.67 1007.31 1007.23 1006.91 1006.71 1006.39 1006.11 1005.87 1005.75 1005.51 1005.15 1004.07 1003.83 1003.91 1003.87 1004.11 1004.07 1004.43 1004.71 1004.39 1004.39 1004.23 1003.59 1003.31 1003.67 1003.87 1004.07 1004.43 1004.63 1004.87 1005.11 1005.63 1006.15 1006.51 1006.83 1007.11 1007.39 1007.75 1008.03 1008.19 1008.39 1008.67 1008.67 1008.87 1009.03 1009.15 1009.39 1009.63 1009.71 1010.11 1010.39 1010.43 1010.59 1010.99 1011.27 1011.07 1011.31 1011.71 1012.07 1012.35 1012.67 1013.03 1013.63
1008.11 1007.79 1007.43 1007.07 1006.75 1006.55 1006.07 1005.79 1005.75 1005.67 1005.35 1004.95 1004.35 1003.99 1003.99 1003.95 1003.91 1003.95 1003.91 1003.71 1003.27 1003.11 1002.99 1003.03 1003.31 1003.51 1003.51 1003.75 1003.95 1004.23 1004.51 1004.91 1005.51 1006.03 1006.39 1006.63 1007.03 1007.31 1007.51 1007.75 1007.99 1008.11 1008.15 1008.59 1008.71 1009.03 1009.19 1009.35 1009.43 1009.51 1009.87 1010.11 1010.23 1010.51 1010.75 1010.75 1010.91 1011.23 1011.59 1011.91 1012.19 1012.95 1013.35
1008.47 1007.99 1007.59 1007.23 1006.79 1006.47 1006.23 1006.03 1005.79 1005.31 1005.11 1004.91 1004.63 1004.15 1003.75 1003.59 1003.59 1003.43 1003.43 1003.51 1003.23 1003.15 1003.03 1002.75 1002.83 1002.83 1003.03 1003.19 1003.27 1003.51 1003.87 1004.31 1004.83 1005.43 1005.83 1006.19 1006.47 1006.63 1006.83 1007.03 1007.23 1007.51 1007.55 1008.07 1008.35 1008.63 1008.67 1008.75 1009.03 1009.07 1009.23 1009.55 1009.87 1009.91 1010.35 1010.39 1010.47 1010.79 1011.07 1011.39 1011.87 1012.35 1012.75
1008.95 1008.59 1008.03 1007.63 1007.35 1007.11 1006.75 1006.39 1005.95 1005.47 1004.95 1004.59 1004.47 1004.03 1003.67 1003.59 1003.55 1003.43 1003.35 1002.99 1002.99 1002.95 1002.99 1002.59 1002.19 1002.19 1002.43 1002.47 1002.59 1002.99 1003.35 1003.79 1004.27 1004.75 1005.19 1005.59 1005.75 1005.95 1006.31 1006.51 1006.71 1006.83 1007.11 1007.43 1007.67 1007.91 1008.07 1008.35 1008.71 1008.87 1008.87 1008.95 1009.15 1009.39 1009.75 1009.91 1010.07 1010.39 1010.59 1010.91 1011.39 1011.91 1012.07
1009.03 1008.75 1008.43 1007.83 1007.47 1007.27 1006.95 1006.39 1005.99 1005.75 1005.55 1005.19 1004.75 1004.11 1003.83 1003.55 1003.59 1003.63 1003.39 1002.87 1002.47 1002.67 1002.63 1002.19 1001.47 1001.19 1001.51 1002.03 1002.35 1002.59 1002.91 1003.15 1003.67 1004.07 1004.51 1004.91 1005.23 1005.47 1005.67 1005.87 1006.31 1006.55 1006.79 1007.07 1007.23 1007.59 1007.75 1008.03 1008.27 1008.63 1008.67 1008.55 1008.75 1008.99 1009.15 1009.51 1009.75 1010.03 1010.27 1010.51 1011.03 1011.27 1011.43
1009.43 1009.11 1008.83 1008.39 1007.91 1007.39 1007.03 1006.71 1006.47 1006.39 1005.99 1005.43 1004.83 1004.27 1003.83 1003.51 1003.51 1003.43 1003.19 1002.87 1002.59 1002.35 1001.71 1001.11 1000.87 1000.95 1001.23 1001.51 1001.83 1002.19 1002.43 1002.63 1003.03 1003.55 1003.87 1004.19 1004.71 1004.99 1005.35 1005.55 1005.83 1006.07 1006.43 1006.75 1006.91 1007.23 1007.55 1007.75 1007.95 1008.19 1008.35 1008.31 1008.39 1008.55 1008.71 1008.75 1009.19 1009.55 1009.83 1010.27 1010.63 1010.91 1011.07
1009.63 1009.23 1008.99 1008.67 1008.19 1007.71 1007.35 1007.03 1006.63 1006.07 1005.59 1005.15 1004.63 1004.07 1003.63 1003.43 1003.47 1003.07 1002.75 1002.63 1002.39 1001.55 1000.67 1000.51 1000.59 1000.71 1000.87 1001.19 1001.47 1001.75 1002.03 1002.31 1002.55 1002.91 1003.35 1003.71 1004.27 1004.87 1005.11 1005.07 1005.27 1005.63 1005.95 1006.23 1006.63 1007.07 1007.35 1007.51 1007.71 1007.91 1008.07 1008.11 1008.11 1008.23 1008.35 1008.27 1008.43 1008.95 1009.51 1009.75 1010.15 1010.47 1010.59
1010.15 1009.87 1009.27 1008.63 1008.07 1007.71 1007.55 1007.31 1006.79 1006.11 1005.63 1004.99 1004.63 1004.11 1003.75 1003.63 1003.51 1002.91 1002.31 1002.23 1001.47 1000.51 1000.15 1000.11 1000.19 1000.31 1000.51 1000.83 1001.15 1001.43 1001.67 1001.91 1002.27 1002.63 1002.83 1003.31 1003.63 1004.27 1004.79 1004.91 1005.23 1005.43 1005.67 1006.11 1006.47 1006.83 1007.23 1007.39 1007.55 1007.79 1008.03 1008.15 1008.07 1007.99 1008.03 1007.99 1008.11 1008.27 1008.91 1009.43 1009.71 1009.95 1010.27
1010.31 1010.03 1009.59 1008.95 1008.43 1007.87 1007.47 1007.27 1006.71 1006.11 1005.43 1004.99 1004.51 1004.07 1003.67 1003.51 1003.31 1002.67 1002.15 1001.47 1000.19 999.75 999.63 999.71 999.75 999.91 1000.23 1000.51 1000.67 1000.99 1001.31 1001.51 1001.79 1002.11 1002.35 1002.83 1003.35 1003.87 1004.47 1004.83 1004.95 1005.23 1005.51 1005.75 1006.19 1006.67 1007.07 1007.19 1007.35 1007.63 1007.91 1008.19 1008.19 1007.95 1007.83 1007.75 1007.79 1007.99 1008.19 1008.71 1009.27 1009.67 1009.95
1010.31 1010.15 1009.87 1009.47 1008.95 1008.35 1007.91 1007.43 1006.83 1006.23 1005.67 1005.11 1004.59 1003.99 1003.47 1002.95 1002.87 1002.51 1002.11 1000.71 999.59 999.39 999.27 999.31 999.39 999.67 999.95 1000.11 1000.27 1000.51 1000.79 1001.11 1001.47 1001.79 1002.11 1002.47 1002.95 1003.71 1004.11 1004.51 1004.75 1005.27 1005.23 1005.59 1005.99 1006.31 1006.71 1006.83 1007.03 1007.47 1007.63 1007.87 1008.03 1007.87 1007.71 1007.55 1007.55 1007.71 1007.99 1008.15 1008.63 1009.11 1009.47
1010.23 1009.83 1009.71 1009.51 1009.07 1008.55 1008.11 1007.43 1006.91 1006.47 1005.95 1005.31 1004.67 1004.03 1003.43 1002.99 1002.59 1002.55 1001.71 1000.31 999.31 998.75 998.67 998.75 999.15 999.43 999.51 999.63 999.83 1000.07 1000.35 1000.95 1001.31 1001.55 1001.83 1002.19 1002.51 1002.99 1003.47 1004.03 1004.43 1004.79 1005.07 1005.39 1005.63 1005.87 1006.27 1006.63 1006.83 1007.11 1007.35 1007.59 1007.51 1007.59 1007.43 1007.31 1007.39 1007.55 1007.71 1008.11 1008.31 1008.67 1008.91
1010.79 1010.43 1010.03 1009.63 1009.35 1008.83 1008.31 1007.71 1007.27 1006.79 1006.31 1005.79 1004.83 1004.15 1003.67 1003.27 1002.55 1002.11 1001.43 1000.67 999.15 998.35 998.15 998.39 998.67 998.99 999.11 999.31 999.51 999.75 1000.07 1000.67 1001.15 1001.51 1001.75 1002.03 1002.35 1002.67 1003.11 1003.43 1003.87 1004.35 1004.83 1005.03 1005.31 1005.63 1005.91 1006.27 1006.63 1006.87 1007.03 1007.27 1007.23 1007.19 1007.23 1007.27 1007.31 1007.39 1007.59 1007.83 1008.23 1008.55 1008.79
1010.87 1010.87 1010.31 1009.63 1009.07 1008.67 1008.31 1007.91 1007.55 1007.11 1006.67 1006.11 1005.19 1004.55 1004.11 1003.59 1002.95 1002.23 1001.59 1000.83 999.67 998.39 997.91 998.23 998.39 998.67 998.87 998.95 999.15 999.51 999.83 1000.31 1000.67 1001.23 1001.75 1001.95 1002.19 1002.67 1002.95 1003.15 1003.35 1003.91 1004.27 1004.43 1004.63 1005.19 1005.59 1005.75 1006.07 1006.27 1006.43 1006.63 1006.71 1006.87 1007.11 1007.31 1007.11 1007.07 1007.23 1007.51 1007.71 1007.99 1008.43
1010.63 1010.71 1010.67 1010.19 1009.35 1008.71 1008.63 1008.19 1007.71 1007.43 1007.11 1006.55 1005.83 1005.27 1004.55 1003.79 1003.03 1002.35 1001.75 1001.11 1000.23 999.51 998.83 998.23 998.27 998.35 998.47 998.67 998.95 999.35 999.59 999.99 1000.47 1000.91 1001.35 1001.75 1002.03 1002.11 1002.35 1002.91 1003.31 1003.51 1003.59 1003.39 1003.43 1003.71 1004.19 1004.63 1004.87 1004.95 1004.99 1005.39 1005.95 1006.51 1006.91 1006.91 1006.91 1006.15 1005.63 1006.19 1006.71 1007.31 1008.15
1010.59 1010.51 1010.31 1009.99 1009.63 1009.03 1008.47 1007.99 1007.79 1007.67 1007.39 1006.99 1006.43 1005.83 1005.11 1004.23 1003.39 1002.63 1001.95 1001.23 1000.55 999.99 999.75 999.27 998.63 998.43 998.59 998.67 998.91 999.19 999.59 999.91 1000.31 1000.67 1001.11 1001.55 1002.03 1002.39 1002.99 1003.39 1003.43 1003.31 1003.35 1003.31 1003.03 1003.23 1003.35 1003.63 1004.07 1004.03 1004.43 1004.99 1004.91 1004.95 1005.67 1005.83 1005.23 1005.15 1005.75 1006.23 1006.67 1006.99 1007.03
1010.51 1010.35 1010.07 1009.71 1009.59 1009.03 1008.63 1008.27 1008.03 1007.79 1007.51 1007.27 1006.79 1006.23 1005.59 1004.75 1003.87 1003.11 1002.19 1001.43 1000.71 1000.31 1000.07 999.67 999.43 999.15 998.75 998.63 998.87 999.07 999.35 999.75 1000.27 1000.59 1001.07 1001.47 1001.75 1002.15 1002.83 1003.47 1003.59 1003.95 1004.15 1003.95 1003.51 1003.11 1003.23 1003.43 1003.51 1003.67 1003.79 1004.03 1004.67 1004.55 1004.51 1004.75 1004.99 1005.31 1005.55 1005.99 1006.47 1006.79 1007.07
1009.95 1009.95 1009.79 1009.63 1009.55 1009.27 1008.87 1008.63 1008.43 1008.15 1007.91 1007.47 1007.03 1006.55 1005.91 1005.15 1004.27 1003.51 1002.59 1001.67 1000.91 1000.43 1000.15 999.87 999.79 999.79 999.67 999.59 999.43 999.51 999.91 1000.27 1000.83 1001.63 1001.83 1001.63 1001.91 1002.31 1002.67 1003.03 1003.67 1004.07 1004.23 1004.43 1004.11 1003.75 1003.51 1003.55 1003.55 1003.47 1003.47 1003.59 1003.87 1004.43 1004.83 1004.91 1005.03 1005.15 1005.51 1005.79 1006.19 1006.55 1006.91
Wind_Speed
21 18 17 16 16 15 16 18 16 15 16 17 17 18 18 17 17 16 16 18 20 18 17 16 16 15 16 14 14 13 13 12 11 11 10 10 10 10 10 8 8 7 7 9 9 9 8 8 8 8 8 7 6 5 6 5 5 5 3 4 4 4 6
20 20 19 18 17 17 16 17 16 14 15 16 16 18 16 17 17 17 18 19 20 20 19 17 16 16 17 16 14 13 13 13 12 10 10 8 7 9 10 10 10 9 8 8 8 7 7 9 9 8 9 8 7 6 6 6 5 4 4 4 4 2 2
22 21 19 19 18 17 17 15 15 15 15 16 17 17 17 18 18 18 17 18 19 19 17 17 17 17 16 16 15 15 14 13 12 12 12 11 12 11 11 10 10 9 9 8 8 7 7 7 8 8 10 9 8 7 6 6 6 5 5 5 4 5 3
22 20 20 20 19 19 19 17 18 15 15 17 18 19 19 18 17 16 17 18 19 18 19 18 17 16 15 15 15 14 15 14 14 14 13 12 12 11 10 10 9 9 8 9 9 9 8 7 7 8 10 9 9 8 7 7 7 6 6 6 6 5 5
23 22 19 17 18 17 17 17 17 17 17 17 17 18 18 15 16 15 15 18 20 21 20 19 16 15 14 15 13 13 15 16 15 13 13 12 12 11 11 12 11 11 11 10 9 9 9 9 8 8 9 9 9 8 8 8 8 8 7 7 7 6 6
19 19 17 16 17 16 17 17 18 19 18 17 17 16 16 16 15 18 17 18 19 18 18 18 18 16 16 16 14 13 13 14 14 14 13 13 13 12 12 12 12 12 12 12 10 11 11 10 10 9 10 9 10 10 9 8 8 8 8 7 7 7 7
18 18 16 16 15 15 16 17 17 17 17 17 16 15 15 15 16 17 16 17 19 20 20 20 19 17 16 15 16 15 16 16 15 15 14 14 14 14 13 12 12 12 12 11 10 11 12 11 12 11 11 11 10 10 9 9 9 8 8 7 7 7 6
19 16 15 16 15 16 16 16 17 16 15 14 15 16 17 16 15 16 18 18 18 19 19 20 19 17 16 15 15 16 16 16 15 15 14 15 14 14 14 13 12 12 11 12 12 11 12 13 12 12 12 11 11 10 10 10 9 9 9 8 8 7 6
21 19 19 18 18 17 17 16 17 17 17 17 18 18 17 16 16 16 17 17 18 19 20 19 19 17 15 15 15 16 15 15 15 14 15 16 14 15 14 13 13 12 12 12 12 11 11 12 12 12 12 11 11 10 10 10 10 9 9 9 9 9 8
21 18 18 19 18 16 16 16 15 15 17 17 16 16 19 18 17 15 15 16 17 19 19 19 17 17 16 16 16 16 15 16 15 16 16 16 14 16 15 14 13 12 13 12 11 12 11 11 12 12 12 12 11 11 10 11 10 10 10 10 10 10 10
20 19 19 21 19 18 17 16 16 16 17 17 17 17 17 17 18 16 16 16 17 17 17 17 16 17 17 17 18 17 17 17 16 17 17 17 15 16 16 15 14 12 13 13 12 12 12 10 11 12 12 12 12 12 11 12 12 12 11 10 10 10 10
9 13 19 21 20 18 19 18 17 16 16 15 16 17 17 17 17 17 16 17 16 16 17 17 16 17 17 17 18 17 18 18 17 18 18 17 16 16 16 14 14 13 12 13 13 13 13 12 11 11 12 13 12 12 12 12 12 12 12 12 10 10 9
17 14 15 19 19 18 17 15 19 19 18 17 17 16 16 17 18 18 17 17 17 16 18 17 16 17 17 17 18 17 18 18 18 18 18 17 16 14 14 14 14 15 14 13 14 13 13 13 13 11 12 13 12 12 12 11 12 12 12 11 10 10 10
13 22 17 16 17 18 18 19 21 20 19 18 17 16 16 16 16 17 17 18 17 16 17 15 17 17 17 17 17 17 18 18 17 17 17 16 15 15 15 15 14 14 14 13 14 13 14 14 14 12 11 12 12 12 12 11 10 11 11 11 11 10 10
24 12 7 8 5 2 9 18 17 18 18 18 19 18 17 16 15 15 16 15 15 16 17 17 17 17 17 17 17 17 16 15 15 15 15 15 15 15 15 15 14 14 13 13 14 12 13 13 14 13 13 12 12 12 11 11 11 10 11 11 11 10 11
18 16 16 16 17 20 18 11 6 2 4 8 14 17 15 14 15 17 17 17 17 16 16 16 17 17 17 17 17 15 15 15 15 15 15 15 16 15 15 15 14 13 14 14 14 13 12 12 13 14 14 13 13 12 11 11 10 12 17 15 12 11 10
16 17 16 14 15 17 13 9 8 8 10 11 12 9 3 2 11 16 15 16 16 16 15 16 16 17 16 16 16 15 14 14 15 15 15 15 15 14 14 14 14 13 14 14 14 14 12 11 14 14 13 14 13 13 11 11 11 17 17 18 18 13 10
17 16 16 16 15 17 18 13 6 8 8 6 4 6 7 9 14 11 10 13 14 15 14 14 16 17 16 15 15 15 16 15 15 15 15 15 15 15 14 13 14 13 13 14 15 13 12 11 13 14 13 12 13 13 12 11 14 18 18 19 19 16 12
16 15 15 14 14 15 14 12 10 6 5 4 3 6 9 7 6 4 13 15 8 12 12 13 15 16 15 15 16 16 15 15 16 16 15 15 15 14 14 13 14 14 13 15 14 13 14 12 10 13 13 13 13 14 13 12 15 17 18 19 19 19 15
17 17 15 15 14 13 11 9 12 11 6 3 3 4 4 5 8 8 9 6 15 11 12 11 12 14 15 14 16 16 15 15 16 17 16 15 14 14 15 14 14 14 12 12 12 14 14 14 12 11 13 13 14 13 13 13 13 18 19 19 19 19 16
18 17 16 16 16 15 12 10 8 11 12 10 9 1 4 5 6 6 7 10 13 17 13 11 11 13 14 15 16 16 16 16 16 16 16 15 15 15 16 16 14 13 12 11 13 14 14 14 13 11 12 13 13 12 13 12 17 18 20 20 19 19 15
17 16 17 15 15 14 14 13 12 13 12 12 11 7 4 2 7 11 15 14 15 16 14 13 11 13 15 15 16 17 17 17 16 16 15 15 15 15 16 16 15 14 12 11 11 12 12 12 12 12 12 12 13 13 13 13 19 19 20 21 20 20 12
16 16 16 15 14 14 13 13 14 12 10 10 11 12 8 4 6 4 6 10 14 14 14 14 13 13 16 16 17 17 17 17 17 16 16 16 16 16 16 16 15 14 11 12 12 12 13 13 13 12 12 11 12 14 13 12 16 20 21 21 22 16 11
14 15 15 15 15 15 15 14 14 14 12 11 9 9 9 8 8 8 8 5 5 7 12 14 15 13 14 16 17 17 17 17 17 17 16 16 17 17 15 15 14 14 12 13 13 13 13 13 12 12 12 13 12 12 12 12 14 21 21 22 21 18 13
13 14 14 15 15 16 16 15 14 13 12 12 11 9 9 9 10 10 10 9 6 6 10 14 15 14 15 16 15 15 16 16 16 16 17 17 17 16 16 16 15 14 12 12 12 11 11 11 12 11 11 12 13 14 13 12 12 19 22 23 22 19 12
16 16 15 15 14 15 14 13 13 13 13 14 14 13 13 13 11 11 11 11 10 8 11 14 16 15 12 11 13 14 15 15 17 17 17 17 16 14 14 13 13 14 14 13 11 11 10 11 12 13 12 12 12 12 13 11 8 14 21 21 21 23 15
13 13 15 16 16 16 14 14 13 13 14 12 13 13 12 12 12 12 11 11 11 12 13 15 15 12 11 12 13 14 16 14 15 17 16 15 14 13 12 12 14 14 14 14 12 12 11 12 12 13 12 11 11 11 12 12 11 11 20 20 21 23 19
14 14 13 13 15 15 14 14 15 15 14 12 14 13 12 11 13 14 13 12 12 14 13 12 12 11 11 13 14 14 15 15 14 15 14 14 13 13 13 13 13 13 14 13 13 14 13 11 11 12 12 11 11 11 12 13 17 10 16 21 22 22 24
13 15 16 17 16 15 15 14 15 15 16 14 14 14 13 15 16 16 14 14 15 14 11 9 11 12 12 12 14 14 14 14 15 14 12 13 14 14 14 12 13 13 13 14 14 14 14 13 11 12 11 11 10 10 11 11 13 18 14 19 21 23 23
11 13 14 15 15 16 18 15 15 16 16 15 14 14 14 13 14 13 13 16 15 13 9 9 11 12 12 13 14 14 14 14 15 14 13 14 13 13 13 13 13 12 12 13 13 12 13 12 11 11 12 12 11 11 11 10 10 14 18 17 22 20 23
12 13 13 14 15 16 16 16 17 17 17 15 17 16 14 13 12 13 15 15 13 12 9 10 12 13 13 13 14 14 13 13 13 14 13 13 13 13 13 14 13 13 12 13 13 13 13 13 12 11 11 12 12 12 11 11 11 10 14 20 20 22 22
13 14 13 13 15 17 16 15 16 16 18 18 17 16 14 14 13 14 15 17 14 10 10 11 12 13 15 14 13 14 14 14 13 13 14 13 12 13 12 13 13 13 12 12 13 13 13 13 12 12 11 11 11 11 12 12 11 10 10 12 16 18 23
10 11 14 14 14 16 13 14 15 16 19 20 17 15 16 16 15 14 15 18 14 9 10 12 13 14 13 14 13 13 13 14 12 12 13 13 12 11 11 12 12 13 12 12 13 13 13 12 12 13 12 12 11 11 10 10 10 10 9 10 10 10 12
9 10 12 13 15 15 15 14 15 16 18 17 16 16 16 14 14 13 16 15 17 8 10 11 13 14 14 15 13 12 13 13 15 14 11 12 12 12 12 12 13 13 14 14 14 14 13 13 14 14 14 13 12 10 9 9 10 11 11 11 11 10 8
9 10 8 12 14 15 15 14 15 16 17 17 16 17 17 17 14 15 15 15 13 13 7 10 12 13 14 13 12 12 12 11 11 12 11 11 11 11 11 12 13 12 11 12 12 14 15 15 15 15 14 13 12 11 11 10 11 14 13 13 15 14 10
8 10 9 9 9 12 15 15 14 15 16 15 16 16 17 17 16 14 14 13 12 11 9 9 5 11 11 11 11 11 11 10 10 11 11 11 10 9 2 10 10 4 7 12 16 16 15 12 12 12 10 11 11 12 13 14 13 8 13 15 16 17 19
6 9 11 10 11 13 15 14 15 15 16 16 16 17 16 16 16 15 14 13 11 9 8 6 7 5 6 10 10 11 11 11 10 9 9 8 9 9 9 5 4 12 11 9 6 11 14 12 13 13 14 13 10 10 11 9 7 11 16 17 18 18 18
4 7 9 9 10 12 13 13 16 15 16 15 16 16 17 16 15 15 14 14 11 10 7 5 4 4 5 4 4 6 7 6 5 4 4 5 6 6 8 10 8 1 11 11 6 4 7 5 5 11 17 17 12 9 6 3 5 12 15 18 18 19 19
Wind_Direction
179 182 186 187 192 185 181 183 183 181 176 178 179 178 176 175 176 174 176 178 182 182 184 182 182 182 185 189 190 188 188 187 184 183 182 182 181 182 185 188 183 184 177 175 187 189 188 188 183 182 183 187 195 179 180 168 165 177 150 143 122 151 181
181 186 184 186 186 186 182 180 183 180 180 179 181 180 176 178 176 177 179 179 181 182 183 184 183 186 187 188 189 189 189 190 187 185 184 181 180 181 184 186 186 187 186 187 182 187 178 189 184 181 183 185 190 181 175 172 168 159 153 148 154 154 158
184 187 187 183 182 183 181 178 176 183 182 180 180 181 182 181 180 178 176 177 180 182 184 187 188 188 189 188 186 191 192 189 188 187 186 187 187 183 185 184 188 187 189 187 185 188 188 181 186 183 181 184 187 183 175 170 169 169 165 163 162 175 180
184 186 188 185 183 181 182 179 178 179 184 182 181 182 184 182 178 175 175 176 178 181 184 189 189 190 190 189 191 191 192 193 191 190 191 190 191 186 181 186 187 187 185 188 189 191 196 190 181 183 183 182 185 183 178 175 174 173 173 170 177 181 189
185 186 183 181 181 179 179 179 180 178 181 184 182 182 183 178 176 175 175 177 179 182 185 185 188 191 192 193 193 193 193 193 193 193 192 192 191 189 188 187 187 188 190 188 186 187 191 194 190 180 185 181 183 182 181 178 176 176 178 175 179 185 186
181 181 180 180 177 178 179 181 182 180 179 181 182 181 180 178 178 179 177 176 180 181 182 183 187 188 192 194 196 196 195 196 194 193 193 192 188 192 194 192 188 190 188 191 186 188 188 190 192 184 182 184 181 183 182 181 180 179 183 178 182 181 186
181 177 179 176 178 177 180 180 182 184 181 182 183 181 179 181 183 182 179 179 179 180 182 185 188 188 192 192 197 196 196 195 193 194 194 193 193 194 196 194 190 191 191 189 190 186 188 189 190 187 183 182 183 182 183 184 183 182 179 184 184 187 184
176 176 173 178 178 178 182 181 181 182 182 183 183 182 185 185 186 184 185 183 181 180 183 185 187 190 189 192 195 198 197 197 195 194 193 194 194 196 195 196 193 192 189 191 195 188 190 190 189 188 185 183 183 183 184 187 187 183 179 183 186 191 190
177 172 174 179 178 178 179 181 180 179 180 182 183 184 184 187 189 188 184 181 184 184 185 185 186 187 187 191 194 198 198 196 196 195 195 195 195 198 197 197 196 192 192 193 194 196 194 191 188 187 185 186 185 183 184 187 189 188 183 187 186 191 196
175 175 177 177 176 176 176 177 179 178 181 181 182 182 186 189 190 187 184 183 184 188 184 183 185 186 188 190 194 195 195 197 197 196 197 198 198 198 197 196 197 193 194 194 193 195 199 192 189 186 185 186 186 186 186 187 190 193 192 189 188 190 195
173 178 176 176 176 175 171 174 179 182 181 182 183 186 186 186 189 190 189 189 186 186 184 185 184 187 188 190 193 194 195 197 196 197 198 199 198 198 196 195 196 196 195 194 195 195 195 194 189 186 186 188 187 188 189 190 191 193 195 193 190 190 192
208 187 179 175 176 171 172 176 178 175 177 181 184 186 186 186 186 190 193 195 186 180 183 186 186 189 189 190 193 195 196 195 196 198 198 198 199 198 196 195 195 195 196 195 196 194 194 191 190 186 189 190 189 190 191 192 192 193 195 194 191 190 192
192 190 184 180 177 175 174 173 177 176 178 181 185 184 184 186 188 190 193 197 192 183 181 182 186 188 190 191 194 195 196 195 197 197 197 197 197 196 196 197 195 196 197 196 198 195 193 193 191 189 188 191 189 191 192 194 195 194 195 195 192 191 192
161 175 181 183 181 176 176 179 177 178 180 183 186 185 183 186 188 189 192 197 194 184 180 181 184 188 190 189 193 196 196 196 195 197 197 196 195 195 195 197 196 196 196 196 199 199 194 191 192 191 188 190 191 192 193 194 195 196 196 196 194 191 194
42 50 74 63 38 300 198 179 176 181 184 188 187 184 182 183 187 192 195 198 193 186 184 180 183 188 190 190 194 196 195 193 194 196 196 195 195 196 196 196 196 193 193 195 198 201 198 192 191 190 191 190 191 191 191 195 197 195 194 195 196 194 196
49 52 50 53 46 44 43 27 7 343 207 198 190 184 181 182 188 193 194 196 193 190 184 180 185 187 189 191 192 191 190 191 192 194 194 194 196 198 196 195 195 192 193 194 197 199 197 193 190 191 192 191 192 192 191 195 199 197 194 194 194 195 198
44 45 43 45 57 54 48 51 45 59 52 46 31 7 332 260 208 196 195 191 189 190 186 182 184 187 189 190 188 186 187 189 192 192 194 195 196 197 197 196 195 194 192 193 194 197 197 192 191 192 192 193 193 195 195 196 199 195 192 195 197 196 199
36 36 36 32 34 44 35 23 41 53 60 49 57 77 73 51 12 327 224 194 193 191 185 184 185 188 189 186 184 185 186 188 190 193 195 193 195 196 198 197 197 197 193 192 193 195 195 194 193 191 190 192 194 197 200 202 200 191 191 194 197 198 200
27 27 27 31 25 34 39 14 1 38 55 54 56 96 88 69 53 71 335 318 247 188 189 188 188 187 187 184 184 187 186 186 189 193 194 195 194 195 196 198 198 198 196 195 191 190 195 198 190 192 190 190 191 196 200 205 200 192 193 196 197 200 200
16 14 16 18 18 24 35 25 344 355 22 61 105 120 124 119 153 203 183 229 309 269 196 192 188 187 187 183 185 186 187 188 189 192 194 192 193 193 196 199 200 199 198 194 190 192 195 198 194 190 191 191 190 193 197 203 194 191 194 198 200 202 200
8 5 5 6 2 5 9 5 357 352 0 -0 344 57 114 164 214 233 212 201 209 235 212 194 185 187 187 187 186 185 186 188 191 192 192 191 192 192 196 199 200 200 197 193 192 193 194 196 198 193 192 192 190 190 195 202 189 188 193 198 200 202 200
358 359 356 356 353 353 353 353 358 -0 356 338 349 4 106 269 261 220 227 222 214 219 211 194 189 188 187 188 187 188 187 187 190 191 191 192 192 194 196 198 199 199 197 195 193 195 195 199 199 196 192 191 191 192 196 199 184 188 192 196 199 198 197
354 350 349 346 348 344 345 347 350 345 336 333 330 325 319 297 271 255 227 227 223 209 201 197 195 190 190 191 188 189 187 186 188 190 192 192 193 196 196 196 198 198 195 198 194 191 195 197 198 197 196 192 192 194 197 199 186 187 192 196 199 190 198
352 346 344 343 342 341 345 343 336 330 324 318 310 301 302 298 295 291 287 261 250 233 211 200 202 194 191 193 190 189 187 186 187 189 191 192 197 196 195 195 196 197 193 197 196 194 195 194 197 197 198 198 196 193 194 200 188 189 191 195 194 186 194
353 346 340 341 341 341 338 332 325 318 316 319 315 318 316 313 304 291 278 277 251 232 228 212 207 198 194 195 189 186 185 186 188 191 191 195 198 195 194 194 194 194 194 199 200 198 190 192 196 198 199 202 203 195 191 199 189 191 194 195 190 189 195
349 347 342 340 339 337 329 325 326 329 330 323 319 318 313 309 304 293 280 267 264 243 227 223 213 205 192 184 185 186 187 188 189 191 193 196 196 196 197 192 191 194 196 198 199 198 193 190 194 197 200 200 203 204 203 199 180 192 198 195 191 190 191
345 342 339 338 336 335 334 332 327 324 319 313 309 305 301 298 293 285 276 265 257 253 241 227 220 203 182 182 186 189 190 190 189 190 194 193 194 195 195 193 195 193 195 197 197 198 198 193 194 198 200 200 203 206 206 208 200 191 194 196 192 194 192
343 340 337 333 332 334 334 330 325 319 318 317 312 306 301 300 294 283 277 267 256 248 243 233 211 197 184 181 187 189 189 190 189 190 190 189 189 192 198 198 195 195 195 195 196 198 200 197 193 197 199 200 202 206 208 207 207 190 196 194 194 194 196
348 341 338 337 336 335 333 328 325 323 321 319 315 312 312 308 297 286 277 267 259 249 243 223 202 194 185 182 185 188 189 189 186 188 189 190 191 193 197 194 196 196 194 195 197 198 199 199 196 196 198 200 203 205 207 206 207 198 190 199 196 197 199
343 340 337 335 333 332 334 327 324 324 323 320 315 311 307 301 299 295 284 271 260 247 232 209 198 192 186 184 185 187 189 189 188 187 189 188 188 192 194 195 197 195 195 196 196 197 199 200 197 196 197 199 203 205 207 207 206 201 193 192 198 198 199
339 336 335 335 335 330 329 328 329 328 325 323 319 315 310 303 299 299 295 285 266 243 217 203 195 189 189 187 186 187 188 188 187 188 189 187 186 190 193 195 193 196 197 195 198 199 200 201 197 197 197 199 202 204 205 206 206 203 200 193 194 198 200
342 335 333 340 340 339 331 328 332 331 330 326 320 317 318 316 314 309 305 301 273 232 206 197 193 192 190 188 187 187 186 186 189 188 189 188 188 191 192 194 195 198 196 197 200 201 200 200 199 202 201 202 203 204 205 204 205 202 197 201 198 201 203
344 337 334 336 335 336 330 336 336 336 334 327 323 326 326 320 318 319 317 316 287 224 201 193 192 193 192 188 185 186 185 185 189 189 190 191 190 191 192 195 196 198 199 199 201 201 201 199 200 204 206 207 205 206 203 202 204 201 197 196 200 208 209
343 337 332 331 335 341 337 338 341 340 337 329 328 330 323 317 321 321 324 319 323 266 198 195 193 191 193 188 185 185 186 188 187 184 188 192 193 194 195 196 198 200 201 199 198 198 199 199 200 203 204 207 207 202 199 202 204 203 200 198 198 201 191
339 332 324 340 336 341 345 334 340 342 341 336 336 331 323 321 321 325 324 323 323 335 292 206 193 196 192 189 186 184 183 185 184 188 190 193 195 203 195 197 203 207 209 207 204 202 198 199 201 203 204 203 202 199 206 208 208 213 200 192 186 183 184
336 331 332 343 333 339 344 340 345 343 344 338 334 330 327 325 326 323 324 322 326 332 343 333 245 199 194 192 188 184 183 185 185 188 189 191 196 187 98 33 52 28 208 209 208 211 215 204 209 203 196 201 205 202 203 207 216 190 169 178 182 189 184
342 337 338 343 344 351 352 344 347 342 345 340 333 331 327 324 324 325 323 325 323 333 334 341 346 308 226 193 190 188 184 182 183 183 191 201 199 177 169 146 59 45 36 7 315 210 205 209 207 193 196 196 201 205 215 230 209 167 176 175 183 188 192
356 349 340 342 344 349 355 357 349 345 342 336 335 332 328 321 327 327 328 326 331 332 330 349 2 19 16 17 48 68 76 64 54 7 307 215 190 169 172 172 168 111 29 28 23 71 123 146 199 206 193 195 187 166 212 243 246 187 171 182 184 190 195